Location: Tel Aviv
(32.0670°N, 34.7670°E)
Time: 14:17:47
(UTC+03:00)

Explorer 11/Cluster Stage 4 - Pass Details

Date: 18 September 2024
Orbit: 464 x 1208 km, 28.8° (Epoch: 06 October)

Event Time Altitude Azimuth Distance (km) Brightness Sun altitude
Rises 03:57:20 0° 208° (SSW) 2,927 - -31.5°
Reaches altitude 10° 04:00:18 10° 187° (S) 2,159 - -30.9°
Maximum altitude 04:03:30 17° 148° (SSE) 1,897 - -30.3°
Exits shadow 04:03:34 17° 147° (SSE) 1,900 8.6 -30.3°
Drops below altitude 10° 04:07:05 10° 110° (ESE) 2,486 9.7 -29.6°
Sets 04:10:52 0° 91° (E) 3,601 10.9 -28.8°
